Weather History for Curitiba, Brazil

Change the Weather History Date:

Sunday, December 22, 2013

  Actual Average Record
Temperature  
Mean Temperature 66 °F -  
Max Temperature 71 °F 78 °F 87 °F (2011)
Min Temperature 61 °F 61 °F 55 °F (2004)
Cooling Degree Days 1    
Growing Degree Days 16 (Base 50)    
Moisture  
Dew Point 63 °F    
Average Humidity 90    
Maximum Humidity 100    
Minimum Humidity 66    
Precipitation  
Precipitation 0.12 in - - ()
Sea Level Pressure  
Sea Level Pressure 29.97 in    
Wind  
Wind Speed 11 mph ()    
Max Wind Speed 17 mph    
Max Gust Speed -    
Visibility 5.9 miles    
Events Rain    
Averages and records for this station are not official NWS values.
T = Trace of Precipitation, MM = Missing Value Source: Averaged Metar Reports

Daily Weather History Graph

Daily Weather History Graph

Search for Another Location

Airport:

Trip Planner

Search our weather history database for the weather conditions in past years. The results will help you decide how hot, cold, wet, or windy it might be!

Date:

Astronomy

Dec. 22, 2013 Rise Set
Actual Time 6:23 AM BRST 8:07 PM BRST
Civil Twilight 5:57 AM BRST 8:33 PM BRST
Nautical Twilight 5:26 AM BRST 9:04 PM BRST
Astronomical Twilight 4:53 AM BRST 9:37 PM BRST
Moon 11:35 PM BRST 10:44 AM BRST
Length of Visible Light 14h 36m
Length of Day
13h 44m
Waning Gibbous, 78% of the Moon is Illuminated
Dec 22
Waning Gibbous
Dec 25
Last Quarter
Jan 1
New
Jan 8
First Quarter
Jan 16
Full

Hourly Weather History & Observations

Time (BRST) Temp. Dew Point Humidity Pressure Visibility Wind Dir Wind Speed Gust Speed Precip Events Conditions
12:00 AM 62.6 °F 62.6 °F 100% 30.01 in 1.9 mi SSE 9.2 mph - N/A Rain Light Rain
1:00 AM 62.6 °F 62.6 °F 100% 29.98 in 6.2 mi SSE 8.1 mph - N/A   Mostly Cloudy
2:00 AM 64.4 °F 62.6 °F 94% 29.98 in 1.9 mi SE 8.1 mph - N/A Rain Light Rain
3:00 AM 62.6 °F 62.6 °F 100% 29.95 in 3.1 mi SE 6.9 mph - N/A   Mostly Cloudy
4:00 AM 63 °F 62 °F 97%  in 5 mi SE 10.4 mph - - Rain Light Rain
4:00 AM 62.6 °F 62.6 °F 100% 29.92 in 5.0 mi SE 10.4 mph - N/A Rain Light Rain
5:00 AM 62.6 °F 62.6 °F 100% 29.92 in 3.1 mi ESE 12.7 mph - N/A Rain Light Rain
6:00 AM 60.8 °F 60.8 °F 100% 29.92 in 5.0 mi ESE 10.4 mph - N/A Rain Light Rain
7:00 AM 62.6 °F 60.8 °F 94% 29.95 in 6.2 mi SE 11.5 mph - N/A   Mostly Cloudy
8:00 AM 64.4 °F 62.6 °F 94% 29.98 in 6.2 mi SE 11.5 mph - N/A   Mostly Cloudy
9:00 AM 66.2 °F 62.6 °F 88% 29.98 in 6.2 mi ESE 11.5 mph - N/A   Mostly Cloudy
10:00 AM 68 °F 64 °F 83%  in 12 mi ESE 17.3 mph - -   Overcast
10:00 AM 68.0 °F 64.4 °F 88% 30.01 in 6.2 mi ESE 17.3 mph - N/A   Mostly Cloudy
11:00 AM 69.8 °F 62.6 °F 78% 30.01 in 6.2 mi SE 17.3 mph - N/A   Mostly Cloudy
12:00 PM 69.8 °F 62.6 °F 78% 30.01 in 6.2 mi SE 13.8 mph - N/A   Scattered Clouds
1:00 PM 71.6 °F 62.6 °F 73% 30.01 in 6.2 mi SE 16.1 mph - N/A Rain Light Rain
1:40 PM 71.6 °F 64.4 °F 78% 29.98 in 6.2 mi ESE 13.8 mph - N/A   Mostly Cloudy
2:00 PM 69.8 °F 64.4 °F 83% 29.98 in 6.2 mi ESE 16.1 mph - N/A Rain Light Rain
3:00 PM 71.6 °F 64.4 °F 78% 29.98 in 6.2 mi ESE 16.1 mph - N/A   Mostly Cloudy
4:00 PM 71 °F 62 °F 66%  in 12 mi SSE 16.1 mph - -   Partly Cloudy
4:00 PM 71.6 °F 62.6 °F 73% 29.98 in 6.2 mi SSE 16.1 mph - N/A   Mostly Cloudy
5:00 PM 69.8 °F 64.4 °F 83% 29.95 in 6.2 mi SE 13.8 mph - N/A   Mostly Cloudy
6:00 PM 68.0 °F 64.4 °F 88% 29.95 in 6.2 mi SE 12.7 mph - N/A   Mostly Cloudy
7:00 PM 66.2 °F 64.4 °F 94% 29.95 in 3.1 mi SE 11.5 mph - N/A Rain Light Rain
8:00 PM 64.4 °F 64.4 °F 100% 29.95 in 6.2 mi SE 10.4 mph - N/A   Overcast
8:10 PM 64.4 °F 64.4 °F 100% 29.95 in 1.6 mi SE 9.2 mph - N/A Rain Light Rain
9:00 PM 64.4 °F 62.6 °F 94% 29.98 in 5.0 mi SE 16.1 mph - N/A   Overcast
10:00 PM 63 °F 62 °F 96%  in 12 mi ESE 11.5 mph - - Rain Light Rain
10:00 PM 62.6 °F 62.6 °F 100% 30.01 in 6.2 mi ESE 11.5 mph - N/A   Overcast
11:00 PM 62.6 °F 62.6 °F 100% 30.01 in 6.2 mi ESE 15.0 mph - N/A   Overcast